When you browse on this site, cookies collect data to enhance your experience and personalize the content and advertising you see.
Visit our Privacy Policy to learn more. By continuing to use the site, you agree to this use of cookies and data.
  • en France
  • Liste des pays
  • À 7 jours
  • Température de l'eau
  • Carte météo
  • Widgets météo
  • user-avatar
    Se connecter

    Météo par heure à Heidelberg

    Ce jour, 25 Janvier, Samedi

    Heure Température Précipitation Vent Pression Humidité
    00:00 -1°C° 0 mm 0 m/s 737 mmHg 88%
    01:00 -1°C° 0 mm 0 m/s 736 mmHg 89%
    02:00 -1°C° 0 mm 0 m/s 736 mmHg 90%
    03:00 -1°C° 0 mm 0 m/s 736 mmHg 91%
    04:00 -1°C° 0 mm 0 m/s 736 mmHg 91%
    05:00 -1°C° 0 mm 0 m/s 736 mmHg 92%
    06:00 -1°C° 0 mm 0 m/s 736 mmHg 92%
    07:00 -1°C° 0 mm 0 m/s 736 mmHg 93%
    08:00 0°C° 0 mm 0 m/s 736 mmHg 91%
    09:00 0°C° 0 mm 0 m/s 736 mmHg 89%
    10:00 +1°C° 0 mm 0 m/s 737 mmHg 87%
    11:00 +2°C° 0 mm 0 m/s 736 mmHg 83%
    12:00 +3°C° 0 mm 0 m/s 736 mmHg 79%
    13:00 +4°C° 0 mm 0 m/s 736 mmHg 76%
    14:00 +4°C° 0 mm 0 m/s 736 mmHg 79%
    15:00 +3°C° 0 mm 0 m/s 735 mmHg 81%
    16:00 +3°C° 0 mm 0 m/s 735 mmHg 84%
    17:00 +2°C° 0 mm 0 m/s 735 mmHg 86%
    18:00 +2°C° 0 mm 0 m/s 735 mmHg 88%
    19:00 +1°C° 0 mm 0 m/s 735 mmHg 89%
    20:00 +1°C° 0 mm 0 m/s 735 mmHg 90%
    21:00 +1°C° 0 mm 0 m/s 735 mmHg 90%
    22:00 +1°C° 0 mm 0 m/s 735 mmHg 91%
    23:00 +1°C° 0 mm 0 m/s 735 mmHg 91%

    Demain, 26 Janvier, Dimanche

    Heure Température Précipitation Vent Pression Humidité
    00:00 +1°C° 0 mm 0 m/s 735 mmHg 91%
    01:00 0°C° 0 mm 0 m/s 735 mmHg 91%
    02:00 0°C° 0 mm 0 m/s 734 mmHg 92%
    03:00 0°C° 0 mm 0 m/s 734 mmHg 92%
    04:00 0°C° 0 mm 0 m/s 734 mmHg 92%
    05:00 +1°C° 0 mm 1 m/s 734 mmHg 92%
    06:00 +1°C° 0 mm 1 m/s 734 mmHg 92%
    07:00 +1°C° 0 mm 1 m/s 734 mmHg 93%
    08:00 +2°C° 0 mm 1 m/s 734 mmHg 91%
    09:00 +2°C° 0 mm 1 m/s 734 mmHg 88%
    10:00 +3°C° 0 mm 1 m/s 734 mmHg 86%
    11:00 +4°C° 0 mm 1 m/s 734 mmHg 82%
    12:00 +5°C° 0 mm 1 m/s 734 mmHg 78%
    13:00 +6°C° 0 mm 1 m/s 734 mmHg 74%
    14:00 +6°C° 0 mm 1 m/s 733 mmHg 76%
    15:00 +6°C° 0 mm 1 m/s 733 mmHg 77%
    16:00 +6°C° 0 mm 1 m/s 733 mmHg 79%
    17:00 +5°C° 0 mm 1 m/s 733 mmHg 81%
    18:00 +5°C° 0 mm 1 m/s 733 mmHg 83%
    19:00 +4°C° 0 mm 1 m/s 733 mmHg 85%
    20:00 +4°C° 0 mm 1 m/s 733 mmHg 86%
    21:00 +4°C° 0 mm 1 m/s 733 mmHg 87%
    22:00 +5°C° 0 mm 1 m/s 733 mmHg 87%
    23:00 +4°C° 0.1 mm 2 m/s 733 mmHg 90%

    Après-demain, 27 Janvier, Lundi

    Heure Température Précipitation Vent Pression Humidité
    00:00 +4°C° 0.1 mm 2 m/s 733 mmHg 92%
    01:00 +4°C° 0.1 mm 2 m/s 732 mmHg 94%
    02:00 +4°C° 0 mm 2 m/s 732 mmHg 94%
    03:00 +4°C° 0 mm 2 m/s 732 mmHg 95%
    04:00 +4°C° 0 mm 2 m/s 732 mmHg 95%
    05:00 +4°C° 0 mm 2 m/s 731 mmHg 94%
    06:00 +4°C° 0 mm 2 m/s 731 mmHg 93%
    07:00 +4°C° 0 mm 2 m/s 731 mmHg 92%
    08:00 +4°C° 0 mm 2 m/s 731 mmHg 90%
    09:00 +4°C° 0 mm 2 m/s 731 mmHg 88%
    10:00 +4°C° 0 mm 3 m/s 730 mmHg 86%
    11:00 +4°C° 0 mm 3 m/s 730 mmHg 85%
    12:00 +5°C° 0 mm 3 m/s 729 mmHg 84%
    13:00 +5°C° 0 mm 3 m/s 729 mmHg 83%
    14:00 +5°C° 0 mm 3 m/s 728 mmHg 84%
    15:00 +5°C° 0 mm 3 m/s 728 mmHg 84%
    16:00 +6°C° 0 mm 2 m/s 727 mmHg 84%
    17:00 +6°C° 0.4 mm 2 m/s 727 mmHg 87%
    18:00 +5°C° 0.4 mm 2 m/s 726 mmHg 90%
    19:00 +5°C° 0.4 mm 2 m/s 726 mmHg 93%
    20:00 +4°C° 0.7 mm 3 m/s 725 mmHg 93%
    21:00 +5°C° 0.7 mm 3 m/s 725 mmHg 93%
    22:00 +5°C° 0.7 mm 4 m/s 725 mmHg 92%
    23:00 +5°C° 0.2 mm 4 m/s 724 mmHg 90%

    28 Janvier, Mardi

    Heure Température Précipitation Vent Pression Humidité
    00:00 +5°C° 0.2 mm 4 m/s 723 mmHg 88%
    01:00 +5°C° 0.2 mm 4 m/s 722 mmHg 86%
    02:00 +5°C° 0.1 mm 4 m/s 721 mmHg 84%
    03:00 +5°C° 0.1 mm 4 m/s 719 mmHg 83%
    04:00 +5°C° 0.1 mm 4 m/s 718 mmHg 82%
    05:00 +5°C° 1.2 mm 5 m/s 718 mmHg 82%
    06:00 +4°C° 1.2 mm 7 m/s 718 mmHg 83%
    07:00 +3°C° 1.2 mm 9 m/s 717 mmHg 83%
    08:00 +3°C° 0.3 mm 9 m/s 718 mmHg 81%
    09:00 +2°C° 0.3 mm 8 m/s 719 mmHg 80%
    10:00 +2°C° 0.3 mm 8 m/s 719 mmHg 79%
    11:00 +2°C° 0.3 mm 8 m/s 720 mmHg 78%
    12:00 +1°C° 0.3 mm 9 m/s 720 mmHg 76%
    13:00 +1°C° 0.3 mm 9 m/s 721 mmHg 75%
    14:00 +1°C° 0.3 mm 8 m/s 722 mmHg 71%
    15:00 +1°C° 0.3 mm 8 m/s 723 mmHg 67%
    16:00 +2°C° 0.3 mm 7 m/s 724 mmHg 63%
    17:00 0°C° 0 mm 7 m/s 724 mmHg 66%
    18:00 +1°C° 0 mm 6 m/s 725 mmHg 69%
    19:00 0°C° 0 mm 5 m/s 725 mmHg 72%
    20:00 -1°C° 0 mm 6 m/s 725 mmHg 71%
    21:00 +1°C° 0 mm 6 m/s 725 mmHg 71%
    22:00 0°C° 0 mm 7 m/s 724 mmHg 71%
    23:00 0°C° 0 mm 7 m/s 723 mmHg 74%

    29 Janvier, Mercredi

    Heure Température Précipitation Vent Pression Humidité
    00:00 0°C° 0 mm 7 m/s 722 mmHg 78%
    01:00 0°C° 0 mm 8 m/s 721 mmHg 81%
    02:00 0°C° 1.7 mm 9 m/s 721 mmHg 81%
    03:00 0°C° 1.7 mm 9 m/s 720 mmHg 82%
    04:00 0°C° 1.7 mm 10 m/s 719 mmHg 82%
    05:00 0°C° 0.3 mm 9 m/s 720 mmHg 78%
    06:00 -1°C° 0.3 mm 8 m/s 722 mmHg 75%
    07:00 -1°C° 0.3 mm 7 m/s 723 mmHg 71%
    08:00 -1°C° 0 mm 7 m/s 724 mmHg 69%
    09:00 -1°C° 0 mm 7 m/s 725 mmHg 68%
    10:00 -1°C° 0 mm 7 m/s 726 mmHg 66%
    11:00 0°C° 0 mm 7 m/s 726 mmHg 65%
    12:00 0°C° 0 mm 7 m/s 726 mmHg 63%
    13:00 +2°C° 0 mm 7 m/s 726 mmHg 62%
    14:00 +2°C° 0 mm 6 m/s 726 mmHg 63%
    15:00 +2°C° 0 mm 6 m/s 726 mmHg 64%
    16:00 +2°C° 0 mm 6 m/s 726 mmHg 66%
    17:00 +1°C° 0.1 mm 6 m/s 726 mmHg 70%
    18:00 +1°C° 0.1 mm 6 m/s 727 mmHg 75%
    19:00 0°C° 0.1 mm 7 m/s 727 mmHg 79%
    20:00 -1°C° 1.3 mm 6 m/s 727 mmHg 83%
    21:00 -1°C° 1.3 mm 6 m/s 727 mmHg 87%
    22:00 -2°C° 1.3 mm 6 m/s 728 mmHg 90%
    23:00 -1°C° 0.2 mm 5 m/s 728 mmHg 88%

    30 Janvier, Jeudi

    Heure Température Précipitation Vent Pression Humidité
    00:00 -1°C° 0.2 mm 4 m/s 729 mmHg 87%
    01:00 0°C° 0.2 mm 4 m/s 730 mmHg 85%
    02:00 0°C° 0.1 mm 4 m/s 730 mmHg 85%
    03:00 0°C° 0.1 mm 5 m/s 730 mmHg 85%
    04:00 +1°C° 0.1 mm 5 m/s 730 mmHg 85%
    05:00 +1°C° 0 mm 6 m/s 729 mmHg 85%
    06:00 -1°C° 0 mm 6 m/s 729 mmHg 84%
    07:00 -1°C° 0 mm 6 m/s 729 mmHg 84%
    08:00 +1°C° 0 mm 6 m/s 729 mmHg 82%
    09:00 +1°C° 0 mm 6 m/s 729 mmHg 81%
    10:00 0°C° 0 mm 7 m/s 729 mmHg 80%
    11:00 +2°C° 0 mm 7 m/s 730 mmHg 79%
    12:00 +2°C° 0 mm 6 m/s 730 mmHg 78%
    13:00 +3°C° 0 mm 6 m/s 730 mmHg 77%
    14:00 +3°C° 0 mm 6 m/s 730 mmHg 77%
    15:00 +3°C° 0 mm 5 m/s 730 mmHg 77%
    16:00 +4°C° 0 mm 4 m/s 730 mmHg 77%
    17:00 +4°C° 0 mm 3 m/s 730 mmHg 80%
    18:00 +3°C° 0 mm 3 m/s 730 mmHg 83%
    19:00 +3°C° 0 mm 2 m/s 730 mmHg 87%
    20:00 +3°C° 0 mm 2 m/s 730 mmHg 88%
    21:00 +3°C° 0 mm 2 m/s 730 mmHg 89%
    22:00 +3°C° 0 mm 2 m/s 730 mmHg 90%
    23:00 +2°C° 0 mm 2 m/s 730 mmHg 90%
    Voir plus